When you browse on this site, cookies collect data to enhance your experience and personalize the content and advertising you see.
Visit our Privacy Policy to learn more. By continuing to use the site, you agree to this use of cookies and data.
  • En España
  • Lista de países
  • Para 7 días
  • Temperatura del agua
  • Mapa Satelital
  • El tiempo en el mapa
  • Informadores
  • user-avatar
    Iniciar sesión

    Tiempo cada hora Kruhy

    Hoy, 24 Mayo, Viernes

    Tiempo Temperatura Precipitaciones Viento Presión Humedad
    00:00 +14°C° 0 mm 0 mps 731 mmHg 80%
    01:00 +14°C° 0 mm 0 mps 731 mmHg 82%
    02:00 +14°C° 0 mm 0 mps 731 mmHg 82%
    03:00 +13°C° 0.1 mm 0 mps 731 mmHg 83%
    04:00 +13°C° 0.1 mm 0 mps 731 mmHg 83%
    05:00 +13°C° 0.1 mm 0 mps 731 mmHg 84%
    06:00 +15°C° 0.1 mm 0 mps 732 mmHg 81%
    07:00 +19°C° 0.1 mm 1 mps 732 mmHg 77%
    08:00 +20°C° 0 mm 1 mps 732 mmHg 73%
    09:00 +21°C° 0.9 mm 1 mps 732 mmHg 69%
    10:00 +22°C° 0.9 mm 1 mps 731 mmHg 64%
    11:00 +23°C° 0.9 mm 1 mps 731 mmHg 60%
    12:00 +23°C° 3.5 mm 1 mps 731 mmHg 60%
    13:00 +24°C° 3.5 mm 1 mps 731 mmHg 60%
    14:00 +24°C° 3.5 mm 1 mps 731 mmHg 60%
    15:00 +23°C° 1.5 mm 1 mps 731 mmHg 63%
    16:00 +23°C° 1.5 mm 1 mps 730 mmHg 67%
    17:00 +23°C° 1.5 mm 1 mps 730 mmHg 70%
    18:00 +21°C° 0 mm 1 mps 730 mmHg 72%
    19:00 +20°C° 0 mm 1 mps 730 mmHg 74%
    20:00 +18°C° 0 mm 1 mps 730 mmHg 77%
    21:00 +18°C° 0 mm 1 mps 730 mmHg 79%
    22:00 +15°C° 0 mm 0 mps 730 mmHg 81%
    23:00 +14°C° 0 mm 0 mps 730 mmHg 83%

    Mañana, 25 Mayo, Sábado

    Tiempo Temperatura Precipitaciones Viento Presión Humedad
    00:00 +14°C° 0 mm 0 mps 730 mmHg 83%
    01:00 +14°C° 0 mm 0 mps 730 mmHg 84%
    02:00 +13°C° 0 mm 0 mps 730 mmHg 85%
    03:00 +13°C° 0 mm 0 mps 729 mmHg 86%
    04:00 +14°C° 0 mm 1 mps 729 mmHg 86%
    05:00 +14°C° 0 mm 1 mps 729 mmHg 87%
    06:00 +16°C° 0 mm 1 mps 729 mmHg 83%
    07:00 +18°C° 0 mm 1 mps 730 mmHg 79%
    08:00 +20°C° 0 mm 1 mps 730 mmHg 76%
    09:00 +20°C° 0.3 mm 2 mps 730 mmHg 72%
    10:00 +21°C° 0.3 mm 2 mps 730 mmHg 68%
    11:00 +23°C° 0.3 mm 2 mps 730 mmHg 64%
    12:00 +24°C° 0.6 mm 3 mps 730 mmHg 64%
    13:00 +24°C° 0.6 mm 3 mps 730 mmHg 64%
    14:00 +23°C° 0.6 mm 4 mps 730 mmHg 65%
    15:00 +22°C° 0.5 mm 4 mps 730 mmHg 69%
    16:00 +22°C° 0.5 mm 4 mps 730 mmHg 74%
    17:00 +21°C° 0.5 mm 4 mps 730 mmHg 79%
    18:00 +20°C° 0.9 mm 4 mps 730 mmHg 81%
    19:00 +18°C° 0.9 mm 4 mps 730 mmHg 84%
    20:00 +17°C° 0.9 mm 3 mps 730 mmHg 86%
    21:00 +17°C° 0.1 mm 3 mps 731 mmHg 88%
    22:00 +15°C° 0.1 mm 4 mps 731 mmHg 90%
    23:00 +14°C° 0.1 mm 4 mps 731 mmHg 92%

    Pasado mañana, 26 Mayo, Domingo

    Tiempo Temperatura Precipitaciones Viento Presión Humedad
    00:00 +14°C° 0 mm 4 mps 731 mmHg 93%
    01:00 +14°C° 0 mm 3 mps 732 mmHg 94%
    02:00 +13°C° 0 mm 3 mps 732 mmHg 96%
    03:00 +13°C° 0 mm 3 mps 732 mmHg 96%
    04:00 +13°C° 0 mm 3 mps 732 mmHg 96%
    05:00 +13°C° 0 mm 3 mps 733 mmHg 96%
    06:00 +14°C° 0 mm 3 mps 733 mmHg 91%
    07:00 +17°C° 0 mm 4 mps 733 mmHg 86%
    08:00 +18°C° 0 mm 4 mps 734 mmHg 81%
    09:00 +19°C° 0 mm 4 mps 734 mmHg 75%
    10:00 +20°C° 0 mm 4 mps 734 mmHg 69%
    11:00 +21°C° 0 mm 4 mps 734 mmHg 63%
    12:00 +22°C° 0.2 mm 4 mps 734 mmHg 64%
    13:00 +22°C° 0.2 mm 4 mps 734 mmHg 64%
    14:00 +24°C° 0.2 mm 3 mps 734 mmHg 64%
    15:00 +22°C° 0.3 mm 3 mps 734 mmHg 65%
    16:00 +22°C° 0.3 mm 3 mps 734 mmHg 67%
    17:00 +22°C° 0.3 mm 3 mps 734 mmHg 69%
    18:00 +21°C° 0 mm 2 mps 734 mmHg 73%
    19:00 +20°C° 0 mm 1 mps 734 mmHg 78%
    20:00 +19°C° 0 mm 1 mps 734 mmHg 82%
    21:00 +18°C° 0 mm 1 mps 735 mmHg 83%
    22:00 +18°C° 0 mm 1 mps 735 mmHg 84%
    23:00 +16°C° 0 mm 1 mps 735 mmHg 85%

    27 Mayo, Lunes

    Tiempo Temperatura Precipitaciones Viento Presión Humedad
    00:00 +16°C° 0 mm 2 mps 735 mmHg 85%
    01:00 +16°C° 0 mm 2 mps 735 mmHg 85%
    02:00 +15°C° 0 mm 2 mps 735 mmHg 86%
    03:00 +15°C° 0 mm 2 mps 735 mmHg 85%
    04:00 +15°C° 0 mm 2 mps 735 mmHg 84%
    05:00 +15°C° 0 mm 2 mps 735 mmHg 83%
    06:00 +17°C° 0 mm 2 mps 735 mmHg 80%
    07:00 +18°C° 0 mm 2 mps 736 mmHg 77%
    08:00 +20°C° 0 mm 3 mps 736 mmHg 74%
    09:00 +21°C° 0 mm 3 mps 736 mmHg 71%
    10:00 +24°C° 0 mm 3 mps 736 mmHg 68%
    11:00 +25°C° 0 mm 3 mps 736 mmHg 66%
    12:00 +26°C° 0 mm 3 mps 736 mmHg 64%
    13:00 +26°C° 0 mm 4 mps 736 mmHg 62%
    14:00 +27°C° 0 mm 4 mps 736 mmHg 60%
    15:00 +27°C° 0 mm 4 mps 735 mmHg 62%
    16:00 +27°C° 0 mm 3 mps 735 mmHg 64%
    17:00 +27°C° 0 mm 3 mps 735 mmHg 66%
    18:00 +25°C° 0 mm 3 mps 735 mmHg 71%
    19:00 +22°C° 0 mm 3 mps 735 mmHg 76%
    20:00 +21°C° 0 mm 3 mps 735 mmHg 81%
    21:00 +20°C° 0 mm 3 mps 735 mmHg 81%
    22:00 +19°C° 0 mm 4 mps 735 mmHg 82%
    23:00 +19°C° 0 mm 4 mps 735 mmHg 82%

    28 Mayo, Martes

    Tiempo Temperatura Precipitaciones Viento Presión Humedad
    00:00 +17°C° 0 mm 5 mps 735 mmHg 78%
    01:00 +17°C° 0 mm 5 mps 734 mmHg 74%
    02:00 +16°C° 0 mm 5 mps 734 mmHg 70%
    03:00 +16°C° 0 mm 5 mps 734 mmHg 73%
    04:00 +15°C° 0 mm 5 mps 734 mmHg 76%
    05:00 +14°C° 0 mm 5 mps 734 mmHg 79%
    06:00 +16°C° 0 mm 6 mps 734 mmHg 77%
    07:00 +17°C° 0 mm 6 mps 734 mmHg 75%
    08:00 +18°C° 0 mm 7 mps 734 mmHg 73%
    09:00 +20°C° 0 mm 8 mps 734 mmHg 70%
    10:00 +22°C° 0 mm 8 mps 734 mmHg 67%
    11:00 +23°C° 0 mm 8 mps 734 mmHg 64%
    12:00 +24°C° 0 mm 9 mps 734 mmHg 63%
    13:00 +24°C° 0 mm 9 mps 733 mmHg 61%
    14:00 +26°C° 0 mm 9 mps 733 mmHg 60%
    15:00 +24°C° 0 mm 8 mps 732 mmHg 62%
    16:00 +24°C° 0 mm 8 mps 732 mmHg 65%
    17:00 +23°C° 0 mm 8 mps 731 mmHg 67%
    18:00 +22°C° 0 mm 7 mps 731 mmHg 69%
    19:00 +21°C° 0 mm 7 mps 731 mmHg 71%
    20:00 +18°C° 0 mm 7 mps 731 mmHg 73%
    21:00 +18°C° 0 mm 7 mps 731 mmHg 75%
    22:00 +17°C° 0 mm 7 mps 731 mmHg 76%
    23:00 +17°C° 0 mm 7 mps 731 mmHg 78%

    29 Mayo, Miércoles

    Tiempo Temperatura Precipitaciones Viento Presión Humedad
    00:00 +16°C° 0 mm 6 mps 731 mmHg 80%
    01:00 +16°C° 0 mm 6 mps 731 mmHg 83%
    02:00 +15°C° 0 mm 5 mps 731 mmHg 85%
    03:00 +15°C° 0.1 mm 5 mps 731 mmHg 88%
    04:00 +14°C° 0.1 mm 4 mps 731 mmHg 91%
    05:00 +14°C° 0.1 mm 4 mps 732 mmHg 94%
    06:00 +17°C° 0 mm 4 mps 732 mmHg 91%
    07:00 +18°C° 0 mm 4 mps 732 mmHg 87%
    08:00 +19°C° 0 mm 4 mps 732 mmHg 84%
    09:00 +21°C° 0 mm 4 mps 732 mmHg 80%
    10:00 +23°C° 0 mm 4 mps 733 mmHg 76%
    11:00 +25°C° 0 mm 4 mps 733 mmHg 72%
    12:00 +26°C° 1.3 mm 4 mps 733 mmHg 69%
    13:00 +26°C° 1.3 mm 3 mps 733 mmHg 65%
    14:00 +27°C° 1.3 mm 3 mps 733 mmHg 62%
    15:00 +27°C° 0 mm 2 mps 733 mmHg 62%
    16:00 +27°C° 0 mm 2 mps 733 mmHg 62%
    17:00 +27°C° 0 mm 2 mps 733 mmHg 62%
    18:00 +26°C° 0 mm 1 mps 733 mmHg 67%
    19:00 +24°C° 0 mm 1 mps 733 mmHg 72%
    20:00 +20°C° 0 mm 0 mps 733 mmHg 78%
    21:00 +21°C° 0 mm 1 mps 733 mmHg 78%
    22:00 +21°C° 0 mm 1 mps 734 mmHg 79%
    23:00 +20°C° 0 mm 1 mps 734 mmHg 80%
    Mostrar más